Showing default

SURCAL 159, 2872

Orbit data source: Space-Track

SURCAL 159, 2872 is a payload satellite owned by NRL (US) in LEO that was launched on Wed, 31 May 1967 UTC via a THOR SLV-2 AGENA D launch vehicle from the Air Force Western Test Range (AFWTR). Payload-class satellites include a variety of spacecraft equipped with specific instruments for various scientific and technological missions. These include communications satellites like Starlink; space stations such as the ISS; scientific satellites like the Hubble; Earth observation satellites from companies like Planet Labs, Umbra, and HawkEye 360; GPS; miniature CubeSats for education and research; and military/defense satellites.

Loading next visibility...
Identifier
2872, 1967-053F
Orbit
LEO
Country
Flag of USUS
Related business
Manufacturer
NRL
Mission
Operational spacecraft
Bus & Motor
NRL 14"?, Unknown motor
Mass
3 kg wet, 3 kg dry
Launch date (UTC)
1967-05-31 (58 years ago)
Launch vehicle
THOR SLV-2 AGENA D
Launch site
Air Force Western Test Range (AFWTR)
Object type
Payload
Rocket body
Debris
Shape & HBR
Unknown
Radar Cross Section
Medium (>0.1 m² and <1 m²)

Expand to show TLE details & history
Last TLE update: 9 hours ago

TLE from 9 hours ago
0 SURCAL 159
1  2872U 67053F   25293.02152323  .00000188  00000-0  16580-3 0  9999
2  2872  69.9730 157.9588 0004243  52.4804 307.6688 13.99517751976608
Epoch: 2025-10-20T00:30Z
TLE epoch observation values (Epoch: 2025-10-20T00:30:59.607Z)
Latitude
-0.00004°
Longitude
121.48061°
Altitude
895.894 km
Speed
7.405 km/s
True Right ascension
10h 31m 50s
True Declination
0° 00' 00"
Sunlit
Object was in daylight at epoch
Visualization orbit readout
Latitude
Unknown
Longitude
Unknown
Altitude
Unknown
Speed
Unknown
Apparent Right ascension
Unknown
Apparent Declination
Unknown
Sunlit
N/A
Visualization observer readout
Local Sidereal Time
04:53:26
Azimuth
Unknown
Elevation
Unknown
Doppler factor
Unknown
Orbital elements
Apogee altitude
896.593 km
Perigee altitude
890.423 km
Semi-major axis
7,271.645 km
Eccentricity
0.00042
Inclination
69.973°
RAAN
157.9588°
Arg. of periapsis
52.4804°
True anomaly
307.6303°
Mean anomaly
307.6688°
Eccentric anomaly
307.64955°
Mean motion
3.50021 °/min
Orbital period
102.85 mins
BSTAR
0.0001658
Loading maneuver chart data...
Computing Atmospheric mass density...
Loading historical data...
Loading historical data...
Loading historical data...
Loading historical data...
Loading historical data...
Loading historical data...
Loading historical data...

Documentation

Showing up to 5 results
|